TimeEST,TemperatureF,Dew PointF,Humidity,Sea Level PressureIn,VisibilityMPH,Wind Direction,Wind SpeedMPH,Gust SpeedMPH,PrecipitationIn,Events,Conditions,WindDirDegrees,DateUTC
12:52 AM,34.0,33.4,98,-9999,30.0,West,46.0,-,N/A,,Overcast,260,2011-11-14 05:52:00
1:53 AM,33.8,32.0,93,-9999,30.0,West,41.4,-,N/A,,Overcast,260,2011-11-14 06:53:00
2:53 AM,34.3,33.6,97,-9999,20.0,WSW,50.6,-,N/A,Fog,Patches of Fog,250,2011-11-14 07:53:00
3:53 AM,33.8,33.8,100,-9999,0.0,WSW,42.6,-,N/A,Fog,Fog,250,2011-11-14 08:53:00
4:52 AM,33.8,33.8,100,-9999,0.0,WSW,43.7,-,N/A,Fog,Fog,250,2011-11-14 09:52:00
5:47 AM,33.8,33.8,100,-9999,0.0,West,39.1,-,N/A,Fog,Fog,260,2011-11-14 10:47:00
6:48 AM,33.8,33.8,100,-9999,0.0,West,38.0,-,N/A,Fog,Fog,260,2011-11-14 11:48:00
7:52 AM,35.6,35.6,100,-9999,0.0,West,38.0,-,N/A,Fog,Fog,260,2011-11-14 12:52:00
8:49 AM,37.4,37.4,100,-9999,0.0,West,48.3,55.2,N/A,Fog,Fog,260,2011-11-14 13:49:00
9:47 AM,37.4,37.4,100,-9999,0.0,West,46.0,58.7,N/A,Fog,Fog,260,2011-11-14 14:47:00
10:51 AM,39.4,38.5,97,-9999,40.0,West,46.0,52.9,N/A,,Mostly Cloudy,260,2011-11-14 15:51:00
11:51 AM,37.4,35.6,93,-9999,40.0,West,54.1,66.7,N/A,,Mostly Cloudy,270,2011-11-14 16:51:00
12:49 PM,37.4,33.8,87,-9999,40.0,West,50.6,63.3,N/A,,Mostly Cloudy,270,2011-11-14 17:49:00
1:51 PM,37.4,32.0,81,-9999,40.0,West,57.5,71.3,N/A,,Overcast,260,2011-11-14 18:51:00
2:56 PM,37.4,32.0,81,-9999,40.0,West,58.7,71.3,N/A,,Overcast,260,2011-11-14 19:56:00
3:50 PM,37.4,33.8,87,-9999,40.0,West,54.1,66.7,N/A,,Overcast,270,2011-11-14 20:50:00
4:58 PM,37.4,35.6,93,-9999,40.0,West,48.3,58.7,N/A,,Mostly Cloudy,270,2011-11-14 21:58:00
5:56 PM,37.4,33.8,87,-9999,80.0,West,49.5,59.8,N/A,,Mostly Cloudy,260,2011-11-14 22:56:00
6:52 PM,37.4,33.8,87,-9999,80.0,West,42.6,-,N/A,Rain,Light Rain Showers,260,2011-11-14 23:52:00
7:55 PM,37.4,33.8,87,-9999,80.0,WSW,43.7,49.5,N/A,Rain,Light Rain Showers,250,2011-11-15 00:55:00
8:54 PM,37.8,36.5,95,-9999,60.0,WSW,40.3,-,N/A,,Overcast,240,2011-11-15 01:54:00
9:49 PM,37.4,37.4,100,-9999,0.0,WSW,36.8,47.2,N/A,Fog-Rain,Light Rain,240,2011-11-15 02:49:00
10:49 PM,37.4,37.4,100,-9999,0.0,SW,40.3,47.2,N/A,Fog-Rain,Light Rain,230,2011-11-15 03:49:00
11:52 PM,37.4,37.4,100,-9999,0.0,WSW,42.6,50.6,N/A,Fog,Fog,240,2011-11-15 04:52:00